| time (UTC) | temp C | wind direction | speed KPH | gust KPH | rain 1hr cm | rain 24hr cm | rain mn cm | humidity % | barometer mb |
| 20260902194554 | 36 | 219 | 3.2 | 16.1 | 0.00 | 0.00 | 0.00 | 46 | 1016.5 |
| 20260902194052 | 35 | 239 | 0.0 | 12.9 | 0.00 | 0.00 | 0.00 | 49 | 1016.6 |
| 20260902193556 | 35 | 164 | 3.2 | 17.7 | 0.00 | 0.00 | 0.00 | 45 | 1016.7 |
| 20260902193053 | 35 | 124 | 3.2 | 16.1 | 0.00 | 0.00 | 0.00 | 43 | 1016.7 |
| 20260902192552 | 35 | 244 | 3.2 | 9.7 | 0.00 | 0.00 | 0.00 | 46 | 1016.9 |
| 20260902192052 | 35 | 257 | 1.6 | 12.9 | 0.00 | 0.00 | 0.00 | 45 | 1016.9 |
| 20260902191552 | 35 | 191 | 6.4 | 12.9 | 0.00 | 0.00 | 0.00 | 46 | 1016.9 |
| 20260902191050 | 35 | 355 | 3.2 | 12.9 | 0.00 | 0.00 | 0.00 | 46 | 1016.9 |
| 20260902190653 | 33 | 342 | 3.2 | 8.0 | 0.00 | 0.00 | 0.00 | 50 | 1017.0 |
| 20260902190049 | 31 | 40 | 1.6 | 9.7 | 0.00 | 0.00 | 0.00 | 62 | 1017.1 |
| 20260902185548 | 32 | 101 | 1.6 | 9.7 | 0.00 | 0.00 | 0.00 | 58 | 1017.3 |
| 20260902185047 | 33 | 200 | 1.6 | 6.4 | 0.00 | 0.00 | 0.00 | 60 | 1017.2 |
| 20260902184547 | 34 | 323 | 1.6 | 8.0 | 0.00 | 0.00 | 0.00 | 47 | 1017.3 |
| 20260902184046 | 35 | 294 | 1.6 | 8.0 | 0.00 | 0.00 | 0.00 | 46 | 1017.4 |
| 20260902183546 | 35 | 232 | 0.0 | 8.0 | 0.00 | 0.00 | 0.00 | 45 | 1017.4 |
| 20260902183046 | 35 | 318 | 3.2 | 8.0 | 0.00 | 0.00 | 0.00 | 43 | 1017.5 |
| 20260902182545 | 36 | 264 | 3.2 | 9.7 | 0.00 | 0.00 | 0.00 | 45 | 1017.5 |
| 20260902182045 | 35 | 194 | 1.6 | 11.3 | 0.00 | 0.00 | 0.00 | 47 | 1017.6 |
| 20260902181545 | 35 | 276 | 1.6 | 6.4 | 0.00 | 0.00 | 0.00 | 49 | 1017.7 |
| 20260902181044 | 35 | 167 | 0.0 | 8.0 | 0.00 | 0.00 | 0.00 | 46 | 1017.7 |
| 20260902180644 | 35 | 272 | 3.2 | 8.0 | 0.00 | 0.00 | 0.00 | 46 | 1017.7 |
| 20260902180046 | 35 | 340 | 1.6 | 6.4 | 0.00 | 0.00 | 0.00 | 46 | 1017.7 |
| 20260902175546 | 35 | 315 | 1.6 | 11.3 | 0.00 | 0.00 | 0.00 | 46 | 1017.9 |
| 20260902175045 | 35 | 107 | 3.2 | 11.3 | 0.00 | 0.00 | 0.00 | 46 | 1017.9 |
| 20260902174550 | 35 | 129 | 3.2 | 6.4 | 0.00 | 0.00 | 0.00 | 51 | 1017.8 |
| 20260902174046 | 35 | 82 | 0.0 | 11.3 | 0.00 | 0.00 | 0.00 | 47 | 1018.0 |
| 20260902173543 | 35 | 138 | 4.8 | 11.3 | 0.00 | 0.00 | 0.00 | 45 | 1018.2 |
| 20260902173042 | 35 | 182 | 0.0 | 6.4 | 0.00 | 0.00 | 0.00 | 48 | 1018.1 |
| 20260902172542 | 35 | 192 | 3.2 | 9.7 | 0.00 | 0.00 | 0.00 | 46 | 1018.2 |
| 20260902172044 | 35 | 198 | 4.8 | 9.7 | 0.00 | 0.00 | 0.00 | 43 | 1018.2 |
| 20260902171543 | 35 | 183 | 3.2 | 9.7 | 0.00 | 0.00 | 0.00 | 44 | 1018.3 |
| 20260902171040 | 35 | 15 | 1.6 | 6.4 | 0.00 | 0.00 | 0.00 | 44 | 1018.3 |
| 20260902170510 | 36 | 165 | 1.6 | 8.0 | 0.00 | 0.00 | 0.00 | 48 | 1018.5 |
| 20260902170009 | 35 | 293 | 3.2 | 16.1 | 0.00 | 0.00 | 0.00 | 45 | 1018.5 |
| 20260902165509 | 35 | 279 | 8.0 | 16.1 | 0.00 | 0.00 | 0.00 | 45 | 1018.6 |
| 20260902165011 | 35 | 220 | 1.6 | 11.3 | 0.00 | 0.00 | 0.00 | 48 | 1018.6 |
| 20260902164513 | 35 | 257 | 4.8 | 11.3 | 0.00 | 0.00 | 0.00 | 50 | 1018.7 |
| 20260902164006 | 35 | 294 | 3.2 | 12.9 | 0.00 | 0.00 | 0.00 | 49 | 1018.8 |
| 20260902163503 | 35 | 288 | 3.2 | 14.5 | 0.00 | 0.00 | 0.00 | 49 | 1018.9 |
| 20260902163002 | 34 | 335 | 1.6 | 17.7 | 0.00 | 0.00 | 0.00 | 50 | 1018.9 |
| 20260902162502 | 34 | 322 | 8.0 | 17.7 | 0.00 | 0.00 | 0.00 | 50 | 1019.0 |
| 20260902162100 | 34 | 331 | 6.4 | 14.5 | 0.00 | 0.00 | 0.00 | 50 | 1019.0 |
| 20260902161559 | 34 | 269 | 6.4 | 16.1 | 0.00 | 0.00 | 0.00 | 50 | 1019.0 |
| 20260902161058 | 34 | 323 | 4.8 | 16.1 | 0.00 | 0.00 | 0.00 | 51 | 1019.1 |
| 20260902160509 | 34 | 281 | 3.2 | 19.3 | 0.00 | 0.00 | 0.00 | 52 | 1019.1 |
| 20260902160009 | 34 | 309 | 4.8 | 19.3 | 0.00 | 0.00 | 0.00 | 54 | 1019.1 |
| 20260902155505 | 34 | 307 | 6.4 | 14.5 | 0.00 | 0.00 | 0.00 | 53 | 1019.2 |
| 20260902155007 | 34 | 309 | 1.6 | 17.7 | 0.00 | 0.00 | 0.00 | 56 | 1019.1 |
| 20260902154507 | 33 | 341 | 6.4 | 17.7 | 0.00 | 0.00 | 0.00 | 55 | 1019.1 |
| 20260902154001 | 33 | 238 | 1.6 | 14.5 | 0.00 | 0.00 | 0.00 | 57 | 1019.1 |
| 20260902153600 | 33 | 171 | 4.8 | 19.3 | 0.00 | 0.00 | 0.00 | 57 | 1019.3 |
| 20260902153058 | 33 | 207 | 4.8 | 19.3 | 0.00 | 0.00 | 0.00 | 57 | 1019.2 |
| 20260902152556 | 32 | 263 | 3.2 | 17.7 | 0.00 | 0.00 | 0.00 | 59 | 1019.3 |
| 20260902152055 | 32 | 138 | 9.7 | 17.7 | 0.00 | 0.00 | 0.00 | 59 | 1019.4 |
| 20260902151558 | 31 | 138 | 4.8 | 17.7 | 0.00 | 0.00 | 0.00 | 61 | 1019.3 |
| 20260902151057 | 32 | 301 | 4.8 | 14.5 | 0.00 | 0.00 | 0.00 | 60 | 1019.5 |
| 20260902150506 | 32 | 325 | 1.6 | 14.5 | 0.00 | 0.00 | 0.00 | 59 | 1019.4 |
| 20260902150009 | 32 | 272 | 4.8 | 14.5 | 0.00 | 0.00 | 0.00 | 61 | 1019.4 |
| 20260902145504 | 32 | 242 | 1.6 | 11.3 | 0.00 | 0.00 | 0.00 | 61 | 1019.4 |
| 20260902145001 | 32 | 24 | 6.4 | 14.5 | 0.00 | 0.00 | 0.00 | 60 | 1019.3 |
| 20260902144602 | 31 | 180 | 3.2 | 14.5 | 0.00 | 0.00 | 0.00 | 62 | 1019.4 |
| 20260902144059 | 31 | 223 | 1.6 | 11.3 | 0.00 | 0.00 | 0.00 | 63 | 1019.4 |
| 20260902143558 | 31 | 216 | 3.2 | 14.5 | 0.00 | 0.00 | 0.00 | 63 | 1019.5 |
| 20260902143057 | 31 | 156 | 4.8 | 14.5 | 0.00 | 0.00 | 0.00 | 64 | 1019.4 |
| 20260902142556 | 31 | 177 | 3.2 | 11.3 | 0.00 | 0.00 | 0.00 | 66 | 1019.5 |
| 20260902142054 | 31 | 232 | 3.2 | 9.7 | 0.00 | 0.00 | 0.00 | 66 | 1019.5 |
| 20260902141554 | 30 | 288 | 3.2 | 9.7 | 0.00 | 0.00 | 0.00 | 67 | 1019.5 |
| 20260902141051 | 30 | 313 | 1.6 | 8.0 | 0.00 | 0.00 | 0.00 | 67 | 1019.4 |
| 20260902140502 | 30 | 209 | 1.6 | 9.7 | 0.00 | 0.00 | 0.00 | 69 | 1019.6 |
| 20260902140108 | 29 | 192 | 3.2 | 9.7 | 0.00 | 0.00 | 0.00 | 70 | 1019.7 |
| 20260902135558 | 28 | 173 | 1.6 | 9.7 | 0.00 | 0.00 | 0.00 | 70 | 1019.7 |
| 20260902135056 | 28 | 171 | 1.6 | 9.7 | 0.00 | 0.00 | 0.00 | 70 | 1019.7 |
| 20260902134555 | 28 | 159 | 1.6 | 11.3 | 0.00 | 0.00 | 0.00 | 73 | 1019.7 |
| 20260902134053 | 27 | 228 | 0.0 | 6.4 | 0.00 | 0.00 | 0.00 | 76 | 1019.8 |
| 20260902133552 | 26 | 307 | 0.0 | 8.0 | 0.00 | 0.00 | 0.00 | 82 | 1019.8 |
| 20260902133101 | 24 | 332 | 1.6 | 8.0 | 0.00 | 0.00 | 0.00 | 89 | 1019.8 |
| 20260902132550 | 23 | 186 | 0.0 | 3.2 | 0.00 | 0.00 | 0.00 | 92 | 1019.8 |
| 20260902132048 | 22 | 221 | 0.0 | 3.2 | 0.00 | 0.00 | 0.00 | 93 | 1019.9 |
| 20260902131557 | 22 | 187 | 0.0 | 1.6 | 0.00 | 0.00 | 0.00 | 93 | 1019.9 |
| 20260902131048 | 22 | 166 | 0.0 | 1.6 | 0.00 | 0.00 | 0.00 | 94 | 1019.9 |
| 20260902130650 | 21 | 163 | 0.0 | 1.6 | 0.00 | 0.00 | 0.00 | 94 | 1019.8 |
| 20260902130054 | 21 | 163 | 0.0 | 0.0 | 0.00 | 0.00 | 0.00 | 94 | 1019.8 |
| 20260902125555 | 21 | 163 | 0.0 | 0.0 | 0.00 | 0.00 | 0.00 | 94 | 1019.8 |
| 20260902125051 | 21 | 163 | 0.0 | 0.0 | 0.00 | 0.00 | 0.00 | 95 | 1019.8 |
| 20260902124551 | 20 | 163 | 0.0 | 0.0 | 0.00 | 0.00 | 0.00 | 95 | 1019.9 |
| 20260902124049 | 20 | 163 | 0.0 | 0.0 | 0.00 | 0.00 | 0.00 | 95 | 1019.9 |
| 20260902123550 | 20 | 163 | 0.0 | 0.0 | 0.00 | 0.00 | 0.00 | 94 | 1019.9 |
| 20260902123047 | 20 | 163 | 0.0 | 0.0 | 0.00 | 0.00 | 0.00 | 94 | 1019.8 |
| 20260902122547 | 20 | 163 | 0.0 | 0.0 | 0.00 | 0.00 | 0.00 | 94 | 1019.8 |
| 20260902122045 | 20 | 163 | 0.0 | 0.0 | 0.00 | 0.00 | 0.00 | 95 | 1019.6 |
| 20260902121552 | 20 | 163 | 0.0 | 0.0 | 0.00 | 0.00 | 0.00 | 95 | 1019.7 |
| 20260902121045 | 20 | 163 | 0.0 | 0.0 | 0.00 | 0.00 | 0.00 | 95 | 1019.6 |
| 20260902120645 | 20 | 163 | 0.0 | 0.0 | 0.00 | 0.00 | 0.00 | 95 | 1019.6 |
| 20260902120045 | 20 | 155 | 0.0 | 0.0 | 0.00 | 0.00 | 0.00 | 95 | 1019.5 |
| 20260902115545 | 20 | 155 | 0.0 | 0.0 | 0.00 | 0.00 | 0.00 | 95 | 1019.5 |
| 20260902115044 | 20 | 155 | 0.0 | 0.0 | 0.00 | 0.00 | 0.00 | 95 | 1019.3 |
| 20260902114550 | 20 | 155 | 0.0 | 0.0 | 0.00 | 0.00 | 0.00 | 94 | 1019.3 |
| 20260902114043 | 20 | 155 | 0.0 | 0.0 | 0.00 | 0.00 | 0.00 | 94 | 1019.2 |
| 20260902113542 | 20 | 155 | 0.0 | 0.0 | 0.00 | 0.00 | 0.00 | 94 | 1019.2 |
| 20260902113053 | 20 | 155 | 0.0 | 0.0 | 0.00 | 0.00 | 0.00 | 94 | 1019.2 |
| 20260902112540 | 20 | 155 | 0.0 | 0.0 | 0.00 | 0.00 | 0.00 | 94 | 1019.1 |
| 20260902112039 | 20 | 155 | 0.0 | 0.0 | 0.00 | 0.00 | 0.00 | 94 | 1019.0 |
| 20260902111539 | 20 | 155 | 0.0 | 0.0 | 0.00 | 0.00 | 0.00 | 94 | 1018.8 |
| 20260902111038 | 20 | 155 | 0.0 | 0.0 | 0.00 | 0.00 | 0.00 | 94 | 1018.8 |
| 20260902110640 | 20 | 155 | 0.0 | 0.0 | 0.00 | 0.00 | 0.00 | 94 | 1018.8 |
| 20260902110101 | 20 | 155 | 0.0 | 0.0 | 0.00 | 0.00 | 0.00 | 94 | 1018.7 |
| 20260902105559 | 20 | 155 | 0.0 | 0.0 | 0.00 | 0.00 | 0.00 | 94 | 1018.7 |
| 20260902105059 | 20 | 155 | 0.0 | 0.0 | 0.00 | 0.00 | 0.00 | 94 | 1018.6 |
| 20260902104611 | 20 | 155 | 0.0 | 0.0 | 0.00 | 0.00 | 0.00 | 94 | 1018.7 |
| 20260902104057 | 20 | 155 | 0.0 | 0.0 | 0.00 | 0.00 | 0.00 | 94 | 1018.6 |
| 20260902103557 | 20 | 155 | 0.0 | 0.0 | 0.00 | 0.00 | 0.00 | 94 | 1018.5 |
| 20260902103104 | 20 | 155 | 0.0 | 0.0 | 0.00 | 0.00 | 0.00 | 93 | 1018.7 |
| 20260902102558 | 20 | 155 | 0.0 | 0.0 | 0.00 | 0.00 | 0.00 | 93 | 1018.6 |
| 20260902102056 | 20 | 155 | 0.0 | 0.0 | 0.00 | 0.00 | 0.00 | 93 | 1018.6 |
| 20260902101556 | 21 | 155 | 0.0 | 0.0 | 0.00 | 0.00 | 0.00 | 93 | 1018.6 |
| 20260902101055 | 21 | 155 | 0.0 | 0.0 | 0.00 | 0.00 | 0.00 | 93 | 1018.5 |
| 20260902100654 | 21 | 155 | 0.0 | 0.0 | 0.00 | 0.00 | 0.00 | 92 | 1018.6 |
| 20260902095558 | 21 | 155 | 0.0 | 0.0 | 0.00 | 0.00 | 0.00 | 92 | 1018.5 |
| 20260902095056 | 21 | 155 | 0.0 | 0.0 | 0.00 | 0.00 | 0.00 | 92 | 1018.5 |
| 20260902094557 | 21 | 155 | 0.0 | 0.0 | 0.00 | 0.00 | 0.00 | 92 | 1018.6 |
| 20260902094056 | 21 | 155 | 0.0 | 0.0 | 0.00 | 0.00 | 0.00 | 91 | 1018.6 |
| 20260902093555 | 21 | 155 | 0.0 | 0.0 | 0.00 | 0.00 | 0.00 | 91 | 1018.6 |
| 20260902093055 | 21 | 155 | 0.0 | 0.0 | 0.00 | 0.00 | 0.00 | 91 | 1018.7 |
| 20260902092554 | 21 | 155 | 0.0 | 0.0 | 0.00 | 0.00 | 0.00 | 91 | 1018.7 |
| 20260902092055 | 21 | 155 | 0.0 | 0.0 | 0.00 | 0.00 | 0.00 | 91 | 1018.7 |
| 20260902091604 | 21 | 155 | 0.0 | 0.0 | 0.00 | 0.00 | 0.00 | 91 | 1018.6 |
| 20260902091053 | 21 | 155 | 0.0 | 0.0 | 0.00 | 0.00 | 0.00 | 90 | 1018.6 |
| 20260902090654 | 21 | 155 | 0.0 | 0.0 | 0.00 | 0.00 | 0.00 | 90 | 1018.6 |
| 20260902090058 | 21 | 155 | 0.0 | 0.0 | 0.00 | 0.00 | 0.00 | 90 | 1018.6 |
| 20260902085551 | 21 | 155 | 0.0 | 0.0 | 0.00 | 0.00 | 0.00 | 89 | 1018.4 |
| 20260902085051 | 21 | 155 | 0.0 | 0.0 | 0.00 | 0.00 | 0.00 | 89 | 1018.5 |
| 20260902084557 | 21 | 155 | 0.0 | 0.0 | 0.00 | 0.00 | 0.00 | 90 | 1018.4 |
| 20260902084051 | 22 | 155 | 0.0 | 0.0 | 0.00 | 0.00 | 0.00 | 89 | 1018.4 |
| 20260902083551 | 22 | 155 | 0.0 | 0.0 | 0.00 | 0.00 | 0.00 | 89 | 1018.3 |
| 20260902083111 | 22 | 155 | 0.0 | 0.0 | 0.00 | 0.00 | 0.00 | 89 | 1018.3 |
| 20260902082550 | 22 | 155 | 0.0 | 0.0 | 0.00 | 0.00 | 0.00 | 89 | 1018.3 |
| 20260902082050 | 22 | 155 | 0.0 | 0.0 | 0.00 | 0.00 | 0.00 | 89 | 1018.4 |
| 20260902081550 | 22 | 141 | 0.0 | 1.6 | 0.00 | 0.00 | 0.00 | 89 | 1018.4 |
| 20260902081050 | 22 | 153 | 0.0 | 0.0 | 0.00 | 0.00 | 0.00 | 88 | 1018.4 |
| 20260902080650 | 22 | 153 | 0.0 | 0.0 | 0.00 | 0.00 | 0.00 | 88 | 1018.5 |
| 20260902080043 | 22 | 153 | 0.0 | 1.6 | 0.00 | 0.00 | 0.00 | 88 | 1018.4 |
| 20260902075546 | 22 | 153 | 0.0 | 1.6 | 0.00 | 0.00 | 0.00 | 88 | 1018.4 |
| 20260902075042 | 22 | 153 | 0.0 | 0.0 | 0.00 | 0.00 | 0.00 | 88 | 1018.2 |
| 20260902074542 | 22 | 153 | 0.0 | 3.2 | 0.00 | 0.00 | 0.00 | 88 | 1018.4 |
| 20260902074041 | 22 | 153 | 0.0 | 3.2 | 0.00 | 0.00 | 0.00 | 88 | 1018.2 |
| 20260902073540 | 22 | 150 | 0.0 | 0.0 | 0.00 | 0.00 | 0.00 | 88 | 1018.2 |
| 20260902073041 | 22 | 177 | 0.0 | 0.0 | 0.00 | 0.00 | 0.00 | 88 | 1018.4 |
| 20260902072544 | 22 | 177 | 0.0 | 3.2 | 0.00 | 0.00 | 0.00 | 88 | 1018.4 |
| 20260902072040 | 22 | 142 | 0.0 | 6.4 | 0.00 | 0.00 | 0.00 | 87 | 1018.5 |
| 20260902071540 | 22 | 163 | 0.0 | 6.4 | 0.00 | 0.00 | 0.00 | 88 | 1018.4 |
| 20260902071039 | 22 | 134 | 0.0 | 9.7 | 0.00 | 0.00 | 0.00 | 88 | 1018.4 |
| 20260902070639 | 22 | 130 | 1.6 | 9.7 | 0.00 | 0.00 | 0.00 | 88 | 1018.3 |
| 20260902070101 | 22 | 139 | 1.6 | 11.3 | 0.00 | 0.00 | 0.00 | 88 | 1018.2 |
| 20260902065600 | 22 | 188 | 1.6 | 11.3 | 0.00 | 0.00 | 0.00 | 88 | 1018.4 |
| 20260902065059 | 22 | 147 | 0.0 | 11.3 | 0.00 | 0.00 | 0.00 | 89 | 1018.4 |
| 20260902064559 | 22 | 159 | 3.2 | 11.3 | 0.00 | 0.00 | 0.00 | 89 | 1018.4 |
| 20260902064059 | 22 | 195 | 1.6 | 8.0 | 0.00 | 0.00 | 0.00 | 89 | 1018.4 |
| 20260902063559 | 22 | 159 | 1.6 | 8.0 | 0.00 | 0.00 | 0.00 | 89 | 1018.4 |
| 20260902063058 | 22 | 155 | 1.6 | 8.0 | 0.00 | 0.00 | 0.00 | 89 | 1018.4 |
| 20260902062559 | 22 | 171 | 3.2 | 8.0 | 0.00 | 0.00 | 0.00 | 89 | 1018.4 |
| 20260902062058 | 22 | 152 | 1.6 | 8.0 | 0.00 | 0.00 | 0.00 | 89 | 1018.4 |
| 20260902061558 | 22 | 141 | 1.6 | 4.8 | 0.00 | 0.00 | 0.00 | 88 | 1018.5 |
| 20260902061057 | 22 | 120 | 0.0 | 3.2 | 0.00 | 0.00 | 0.00 | 88 | 1018.5 |
| 20260902060658 | 22 | 155 | 0.0 | 4.8 | 0.00 | 0.00 | 0.00 | 88 | 1018.4 |
| 20260902060105 | 22 | 173 | 1.6 | 8.0 | 0.00 | 0.00 | 0.00 | 88 | 1018.3 |
| 20260902055556 | 23 | 129 | 0.0 | 8.0 | 0.00 | 0.00 | 0.00 | 88 | 1018.3 |
| 20260902055056 | 23 | 122 | 1.6 | 4.8 | 0.00 | 0.00 | 0.00 | 88 | 1018.3 |
| 20260902054606 | 23 | 184 | 1.6 | 6.4 | 0.00 | 0.00 | 0.00 | 89 | 1018.4 |
| 20260902054054 | 23 | 160 | 1.6 | 6.4 | 0.00 | 0.00 | 0.00 | 88 | 1018.2 |
| 20260902053554 | 23 | 135 | 1.6 | 8.0 | 0.00 | 0.00 | 0.00 | 89 | 1018.2 |
| 20260902053105 | 23 | 127 | 3.2 | 8.0 | 0.00 | 0.00 | 0.00 | 89 | 1018.1 |
| 20260902052553 | 23 | 170 | 3.2 | 9.7 | 0.00 | 0.00 | 0.00 | 90 | 1018.1 |
| 20260902052053 | 23 | 126 | 3.2 | 9.7 | 0.00 | 0.00 | 0.00 | 90 | 1018.0 |
| 20260902051602 | 23 | 136 | 0.0 | 8.0 | 0.00 | 0.00 | 0.00 | 90 | 1018.1 |
| 20260902051052 | 23 | 164 | 0.0 | 8.0 | 0.00 | 0.00 | 0.00 | 89 | 1018.0 |
| 20260902050652 | 23 | 155 | 0.0 | 6.4 | 0.00 | 0.00 | 0.00 | 89 | 1018.1 |
| 20260902050058 | 23 | 178 | 1.6 | 6.4 | 0.00 | 0.00 | 0.00 | 89 | 1017.9 |
| 20260902045552 | 23 | 175 | 0.0 | 0.0 | 0.00 | 0.00 | 0.00 | 89 | 1017.9 |
| 20260902045050 | 23 | 154 | 0.0 | 0.0 | 0.00 | 0.00 | 0.00 | 89 | 1017.9 |
| 20260902044551 | 23 | 155 | 0.0 | 3.2 | 0.00 | 0.00 | 0.00 | 89 | 1017.9 |
| 20260902044050 | 23 | 191 | 0.0 | 3.2 | 0.00 | 0.00 | 0.00 | 89 | 1017.8 |
| 20260902043550 | 23 | 164 | 0.0 | 4.8 | 0.00 | 0.00 | 0.00 | 89 | 1017.8 |
| 20260902043058 | 23 | 193 | 0.0 | 4.8 | 0.00 | 0.00 | 0.00 | 89 | 1017.8 |
| 20260902042551 | 23 | 173 | 0.0 | 4.8 | 0.00 | 0.00 | 0.00 | 88 | 1017.7 |
| 20260902042051 | 23 | 178 | 0.0 | 0.0 | 0.00 | 0.00 | 0.00 | 88 | 1017.9 |
| 20260902041550 | 23 | 185 | 0.0 | 0.0 | 0.00 | 0.00 | 0.00 | 88 | 1017.8 |
| 20260902041050 | 23 | 213 | 0.0 | 0.0 | 0.00 | 0.00 | 0.00 | 88 | 1017.8 |
| 20260902040650 | 23 | 196 | 0.0 | 0.0 | 0.00 | 0.00 | 0.00 | 88 | 1017.7 |
| 20260902040049 | 23 | 176 | 0.0 | 0.0 | 0.00 | 0.00 | 0.00 | 89 | 1017.8 |
| 20260902035546 | 23 | 166 | 0.0 | 0.0 | 0.00 | 0.00 | 0.00 | 88 | 1017.7 |
| 20260902035046 | 23 | 187 | 0.0 | 1.6 | 0.00 | 0.00 | 0.00 | 89 | 1017.7 |
| 20260902034546 | 23 | 170 | 0.0 | 1.6 | 0.00 | 0.00 | 0.00 | 88 | 1017.7 |
| 20260902034045 | 24 | 179 | 0.0 | 3.2 | 0.00 | 0.00 | 0.00 | 88 | 1017.8 |
| 20260902033545 | 24 | 177 | 0.0 | 4.8 | 0.00 | 0.00 | 0.00 | 88 | 1017.8 |
| 20260902033046 | 24 | 185 | 0.0 | 4.8 | 0.00 | 0.00 | 0.00 | 88 | 1017.8 |
| 20260902032545 | 24 | 172 | 0.0 | 6.4 | 0.00 | 0.00 | 0.00 | 88 | 1017.8 |
| 20260902032045 | 24 | 177 | 0.0 | 6.4 | 0.00 | 0.00 | 0.00 | 87 | 1017.8 |
| 20260902031545 | 25 | 169 | 0.0 | 4.8 | 0.00 | 0.00 | 0.00 | 86 | 1017.7 |
| 20260902031045 | 25 | 191 | 0.0 | 4.8 | 0.00 | 0.00 | 0.00 | 86 | 1017.7 |
| 20260902030646 | 25 | 163 | 0.0 | 1.6 | 0.00 | 0.00 | 0.00 | 86 | 1017.7 |
| 20260902030042 | 25 | 180 | 0.0 | 1.6 | 0.00 | 0.00 | 0.00 | 86 | 1017.5 |
| 20260902025542 | 25 | 157 | 0.0 | 0.0 | 0.00 | 0.00 | 0.00 | 86 | 1017.4 |
| 20260902025042 | 25 | 157 | 0.0 | 4.8 | 0.00 | 0.00 | 0.00 | 87 | 1017.3 |
| 20260902024542 | 24 | 171 | 0.0 | 4.8 | 0.00 | 0.00 | 0.00 | 87 | 1017.3 |
| 20260902024044 | 25 | 183 | 0.0 | 6.4 | 0.00 | 0.00 | 0.00 | 87 | 1017.3 |
| 20260902023544 | 25 | 136 | 0.0 | 6.4 | 0.00 | 0.00 | 0.00 | 87 | 1017.5 |
| 20260902023046 | 25 | 157 | 0.0 | 8.0 | 0.00 | 0.00 | 0.00 | 86 | 1017.4 |
| 20260902022542 | 25 | 168 | 0.0 | 3.2 | 0.00 | 0.00 | 0.00 | 86 | 1017.2 |
| 20260902022041 | 25 | 177 | 0.0 | 4.8 | 0.00 | 0.00 | 0.00 | 86 | 1017.2 |
| 20260902021540 | 25 | 165 | 0.0 | 4.8 | 0.00 | 0.00 | 0.00 | 85 | 1017.1 |
| 20260902021044 | 25 | 161 | 0.0 | 1.6 | 0.00 | 0.00 | 0.00 | 85 | 1017.1 |
| 20260902020641 | 25 | 150 | 0.0 | 3.2 | 0.00 | 0.00 | 0.00 | 84 | 1017.1 |
| 20260902020039 | 25 | 150 | 0.0 | 3.2 | 0.00 | 0.00 | 0.00 | 84 | 1017.1 |
| 20260902015539 | 25 | 180 | 0.0 | 0.0 | 0.00 | 0.00 | 0.00 | 84 | 1017.0 |
| 20260902015038 | 25 | 142 | 0.0 | 4.8 | 0.00 | 0.00 | 0.00 | 84 | 1017.1 |
| 20260902014538 | 25 | 149 | 0.0 | 6.4 | 0.00 | 0.00 | 0.00 | 84 | 1017.0 |
| 20260902014039 | 25 | 130 | 0.0 | 4.8 | 0.00 | 0.00 | 0.00 | 85 | 1016.9 |
| 20260902013538 | 25 | 164 | 0.0 | 8.0 | 0.00 | 0.00 | 0.00 | 85 | 1016.8 |
| 20260902013038 | 25 | 152 | 0.0 | 8.0 | 0.00 | 0.00 | 0.00 | 84 | 1016.8 |
| 20260902012537 | 25 | 125 | 0.0 | 4.8 | 0.00 | 0.00 | 0.00 | 84 | 1016.8 |
| 20260902012037 | 26 | 142 | 0.0 | 4.8 | 0.00 | 0.00 | 0.00 | 83 | 1016.7 |
| 20260902011550 | 26 | 165 | 0.0 | 4.8 | 0.00 | 0.00 | 0.00 | 82 | 1016.7 |
| 20260902011039 | 26 | 134 | 0.0 | 4.8 | 0.00 | 0.00 | 0.00 | 82 | 1016.6 |
| 20260902010638 | 26 | 113 | 0.0 | 4.8 | 0.00 | 0.00 | 0.00 | 81 | 1016.7 |
| 20260902010056 | 26 | 143 | 0.0 | 4.8 | 0.00 | 0.00 | 0.00 | 81 | 1016.7 |
| 20260902005556 | 26 | 166 | 0.0 | 4.8 | 0.00 | 0.00 | 0.00 | 80 | 1016.4 |
| 20260902005055 | 27 | 115 | 0.0 | 4.8 | 0.00 | 0.00 | 0.00 | 79 | 1016.5 |
| 20260902004555 | 27 | 96 | 0.0 | 4.8 | 0.00 | 0.00 | 0.00 | 77 | 1016.5 |
| 20260902004059 | 27 | 164 | 0.0 | 8.0 | 0.00 | 0.00 | 0.00 | 76 | 1016.4 |
| 20260902003556 | 28 | 160 | 0.0 | 8.0 | 0.00 | 0.00 | 0.00 | 76 | 1016.4 |
| 20260902003100 | 28 | 184 | 0.0 | 3.2 | 0.00 | 0.00 | 0.00 | 74 | 1016.4 |
| 20260902002557 | 28 | 178 | 0.0 | 4.8 | 0.00 | 0.00 | 0.00 | 73 | 1016.5 |
| 20260902002054 | 28 | 157 | 0.0 | 4.8 | 0.00 | 0.00 | 0.00 | 73 | 1016.5 |
| 20260902001558 | 28 | 152 | 0.0 | 9.7 | 0.00 | 0.00 | 0.00 | 74 | 1016.4 |
| 20260902001054 | 29 | 47 | 0.0 | 9.7 | 0.00 | 0.00 | 0.00 | 71 | 1016.4 |
| 20260902000654 | 30 | 161 | 1.6 | 9.7 | 0.00 | 0.00 | 0.00 | 70 | 1016.4 |
| 20260902000056 | 30 | 171 | 0.0 | 4.8 | 0.00 | 0.00 | 0.00 | 67 | 1016.5 |
| 20260901235552 | 30 | 180 | 0.0 | 9.7 | 0.00 | 0.00 | 0.00 | 67 | 1016.5 |
| 20260901235051 | 30 | 248 | 1.6 | 12.9 | 0.00 | 0.00 | 0.00 | 70 | 1016.5 |
| 20260901234559 | 30 | 109 | 1.6 | 6.4 | 0.00 | 0.00 | 0.00 | 71 | 1016.5 |
| 20260901234051 | 30 | 53 | 1.6 | 9.7 | 0.00 | 0.00 | 0.00 | 70 | 1016.5 |
| 20260901233551 | 31 | 97 | 1.6 | 9.7 | 0.00 | 0.00 | 0.00 | 65 | 1016.5 |
| 20260901233051 | 31 | 221 | 3.2 | 14.5 | 0.00 | 0.00 | 0.00 | 64 | 1016.6 |
| 20260901232551 | 31 | 79 | 3.2 | 14.5 | 0.00 | 0.00 | 0.00 | 65 | 1016.5 |
| 20260901232051 | 31 | 164 | 3.2 | 12.9 | 0.00 | 0.00 | 0.00 | 63 | 1016.6 |
| 20260901231608 | 31 | 106 | 3.2 | 12.9 | 0.00 | 0.00 | 0.00 | 65 | 1016.8 |
| 20260901231050 | 31 | 57 | 1.6 | 12.9 | 0.00 | 0.00 | 0.00 | 64 | 1016.7 |
| 20260901230652 | 31 | 88 | 3.2 | 11.3 | 0.00 | 0.00 | 0.00 | 64 | 1016.8 |
| 20260901230106 | 31 | 117 | 1.6 | 8.0 | 0.00 | 0.00 | 0.00 | 65 | 1016.7 |
| 20260901225551 | 31 | 113 | 1.6 | 14.5 | 0.00 | 0.00 | 0.00 | 64 | 1016.8 |
| 20260901225049 | 31 | 103 | 3.2 | 14.5 | 0.00 | 0.00 | 0.00 | 62 | 1016.8 |
| 20260901224551 | 32 | 93 | 3.2 | 12.9 | 0.00 | 0.00 | 0.00 | 63 | 1016.8 |
| 20260901224048 | 32 | 37 | 4.8 | 12.9 | 0.00 | 0.00 | 0.00 | 62 | 1016.8 |
| 20260901223552 | 32 | 64 | 3.2 | 11.3 | 0.00 | 0.00 | 0.00 | 61 | 1016.7 |
| 20260901223050 | 32 | 65 | 1.6 | 17.7 | 0.00 | 0.00 | 0.00 | 62 | 1016.8 |
| 20260901222547 | 32 | 104 | 0.0 | 17.7 | 0.00 | 0.00 | 0.00 | 62 | 1016.8 |
| 20260901222047 | 32 | 43 | 3.2 | 17.7 | 0.00 | 0.00 | 0.00 | 62 | 1016.7 |
| 20260901221609 | 32 | 87 | 3.2 | 17.7 | 0.00 | 0.00 | 0.00 | 58 | 1016.7 |
| 20260901221048 | 33 | 130 | 6.4 | 17.7 | 0.00 | 0.00 | 0.00 | 57 | 1016.7 |
| 20260901220648 | 33 | 85 | 6.4 | 16.1 | 0.00 | 0.00 | 0.00 | 55 | 1016.7 |
| 20260901220049 | 33 | 131 | 8.0 | 14.5 | 0.00 | 0.00 | 0.00 | 54 | 1016.4 |
| 20260901215542 | 33 | 91 | 3.2 | 9.7 | 0.00 | 0.00 | 0.00 | 58 | 1016.4 |
| 20260901215041 | 33 | 117 | 3.2 | 14.5 | 0.00 | 0.00 | 0.00 | 57 | 1016.3 |
| 20260901214541 | 33 | 144 | 1.6 | 14.5 | 0.00 | 0.00 | 0.00 | 59 | 1016.3 |
| 20260901214041 | 33 | 12 | 3.2 | 11.3 | 0.00 | 0.00 | 0.00 | 54 | 1016.3 |
| 20260901213541 | 33 | 247 | 1.6 | 11.3 | 0.00 | 0.00 | 0.00 | 54 | 1016.3 |
| 20260901213059 | 33 | 116 | 3.2 | 12.9 | 0.00 | 0.00 | 0.00 | 54 | 1016.4 |
| 20260901212541 | 33 | 86 | 1.6 | 12.9 | 0.00 | 0.00 | 0.00 | 52 | 1016.4 |
| 20260901212041 | 33 | 96 | 4.8 | 11.3 | 0.00 | 0.00 | 0.00 | 52 | 1016.3 |
| 20260901211541 | 34 | 110 | 3.2 | 14.5 | 0.00 | 0.00 | 0.00 | 53 | 1016.4 |
| 20260901211039 | 35 | 92 | 6.4 | 14.5 | 0.00 | 0.00 | 0.00 | 47 | 1016.4 |
| 20260901210501 | 35 | 98 | 4.8 | 16.1 | 0.00 | 0.00 | 0.00 | 48 | 1016.4 |
| 20260901210118 | 35 | 96 | 6.4 | 16.1 | 0.00 | 0.00 | 0.00 | 48 | 1016.6 |
| 20260901210002 | 35 | 92 | 4.8 | 16.1 | 0.00 | 0.00 | 0.00 | 50 | 1016.4 |
| 20260901205603 | 35 | 122 | 3.2 | 12.9 | 0.00 | 0.00 | 0.00 | 50 | 1016.6 |
| 20260901205059 | 35 | 56 | 3.2 | 11.3 | 0.00 | 0.00 | 0.00 | 47 | 1016.6 |
| 20260901204609 | 35 | 130 | 4.8 | 12.9 | 0.00 | 0.00 | 0.00 | 48 | 1016.7 |
| 20260901204054 | 35 | 124 | 1.6 | 16.1 | 0.00 | 0.00 | 0.00 | 47 | 1016.7 |
| 20260901203558 | 35 | 47 | 6.4 | 16.1 | 0.00 | 0.00 | 0.00 | 47 | 1016.7 |
| 20260901203059 | 35 | 130 | 1.6 | 20.9 | 0.00 | 0.00 | 0.00 | 50 | 1016.8 |
| 20260901202553 | 35 | 104 | 4.8 | 20.9 | 0.00 | 0.00 | 0.00 | 46 | 1016.9 |
| 20260901202056 | 35 | 138 | 3.2 | 19.3 | 0.00 | 0.00 | 0.00 | 49 | 1016.8 |
| 20260901201557 | 36 | 61 | 8.0 | 19.3 | 0.00 | 0.00 | 0.00 | 47 | 1016.9 |
| 20260901201052 | 35 | 94 | 4.8 | 16.1 | 0.00 | 0.00 | 0.00 | 47 | 1016.9 |
| 20260901200651 | 35 | 45 | 4.8 | 16.1 | 0.00 | 0.00 | 0.00 | 45 | 1017.0 |
| 20260901200117 | 36 | 84 | 6.4 | 16.1 | 0.00 | 0.00 | 0.00 | 46 | 1017.1 |
| 20260901195557 | 36 | 52 | 6.4 | 16.1 | 0.00 | 0.00 | 0.00 | 44 | 1017.1 |
| 20260901195057 | 36 | 58 | 0.0 | 14.5 | 0.00 | 0.00 | 0.00 | 46 | 1017.2 |